DELTA 1 DEB, 21342

Orbit data source: Space-Track

DELTA 1 DEB, 21342 is space debris in SSO originally from a launch on Thu, 12 Jun 1975 UTC launched from the Air Force Western Test Range (AFWTR). Debris objects in space refer to the collection of defunct objects orbiting the Earth. Examples of debris include non-operational satellites, rocket bodies, and fragments generated from explosions, collisions, or faulty payload assembly.

Loading next visibility...
Identifier
21342, 1975-052BL
Orbit
SSO
Country
Flag of USUS
Related business
Manufacturer
Unknown
Mission
Spacecraft
Bus & Motor
Unknown
Mass
Unknown
Launch date (UTC)
1975-06-12 (51 years ago)
Launch vehicle
Unknown
Launch site
Air Force Western Test Range (AFWTR)
Object type
Payload
Rocket body
Debris
Shape & HBR
Unknown shape, 0.1 m
Radar Cross Section
Medium (>0.1 m² and <1 m²)

Expand to show TLE details & history
Last TLE update: 2 days ago

TLE from 2 days ago
0 DELTA 1 DEB
1 21342U 75052BL  26171.02930367  .00002338  00000-0  69651-3 0  9994
2 21342  99.9972 189.7790 0118724 271.5648 113.9091 14.40338776805680
Epoch: 2026-06-20T00:42Z
TLE epoch observation values (Epoch: 2026-06-20T00:42:11.837Z)
Latitude
26.30949°
Longitude
-93.99362°
Altitude
795.728 km
Speed
7.44 km/s
True Right ascension
12h 19m 13s
True Declination
26° 10' 26"
Sunlit
Object was in daylight at epoch
Visualization orbit readout
Latitude
Unknown
Longitude
Unknown
Altitude
Unknown
Speed
Unknown
Apparent Right ascension
Unknown
Apparent Declination
Unknown
Sunlit
N/A
Visualization observer readout
Local Sidereal Time
09:17:08
Azimuth
Unknown
Elevation
Unknown
Doppler factor
Unknown
Orbital elements
Apogee altitude
839.259 km
Perigee altitude
669.894 km
Semi-major axis
7,132.714 km
Eccentricity
0.01187
Inclination
99.9972°
RAAN
189.779°
Arg. of periapsis
271.5648°
True anomaly
115.1453°
Mean anomaly
113.9091°
Eccentric anomaly
114.52795°
Mean motion
3.60297 °/min
Orbital period
99.92 mins
BSTAR
0.00069651
Loading maneuver chart data...
Computing Atmospheric mass density...
Loading historical data...
Loading historical data...
Loading historical data...
Loading historical data...
Loading historical data...
Loading historical data...
Loading historical data...

Documentation

Showing up to 5 results
|